Simultaneous Nadir Overpasses (SNOs) Predictions

Prediction of SNOs between LANDSAT-8 and NOAA-19 Satellite Orbit:

Table of predicted SNOs for the next 14.0 days since TLE Epoch: 10/19/2024
Index Date (LANDSAT-8) Time (LANDSAT-8) Lat,Lon (LANDSAT-8) SZA (LANDSAT-8 ) Date (NOAA-19) Time (NOAA-19) Lat,Lon (NOAA-19) SZA (NOAA-19 ) Distance(km) Time Diff (sec)
1 10/19/2024 13:11:53 -80.33,-167.43 87.79 10/19/2024 13:10:51 -80.33,-167.54 87.83 2.05 62
2 10/19/2024 14:01:17 80.40, 0.85 92.34 10/19/2024 14:01:44 80.39, 0.69 92.33 3.18 27
3 10/21/2024 20:24:26 80.38, -95.15 93.11 10/21/2024 20:24:18 80.38, -95.05 93.12 1.82 8
4 10/24/2024 02:47:35 80.34, 168.76 93.85 10/24/2024 02:46:54 80.34, 168.70 93.83 1.36 41
5 10/24/2024 03:37:00 -80.41, -22.96 86.03 10/24/2024 03:37:51 -80.41, -22.93 86.00 0.62 51
6 10/26/2024 09:10:49 80.10, 70.77 94.23 10/26/2024 09:09:35 80.17, 70.67 94.25 7.48 74
7 10/26/2024 10:00:08 -80.37,-119.14 85.32 10/26/2024 10:00:26 -80.36,-119.21 85.32 1.48 18
8 10/28/2024 16:23:14 -80.35, 144.90 84.59 10/28/2024 16:22:59 -80.35, 144.98 84.59 1.45 15
9 10/30/2024 22:46:19 -80.32, 48.84 83.90 10/30/2024 22:45:32 -80.32, 48.99 83.90 2.68 47



Historial Predications of SNOs between LANDSAT-8 and NOAA-19
